Tracking 31027 objects as of 19-Jul-2025
HD Live streaming from Space Station
objects crossing your sky now

ATLAS CENTAUR R/B

Track ATLAS CENTAUR R/B now!


NORAD ID: 8621
Int'l Code: 1976-010B
Perigee: 565.4 km
Apogee: 36,529.6 km
Inclination: 21.1 °
Period: 652.4 minutes
Semi major axis: 24918 km
RCS: 16.4818 m2 (large)
Launch date: January 29, 1976
Source: United States (US)
Launch site: AIR FORCE EASTERN TEST RANGE (AFETR)

Note: This is a ROCKET BODY
Your satellite tracking list
STARLINK-4010
Track 1 satellite(s)




NASA's NSSDC Master Catalog

Two Line Element Set (TLE):
1 08621U 76010B   25199.14046029  .00000010  00000-0  31709-3 0  9997
2 08621  21.0944 220.5923 7216377  45.0956  46.9047  2.20709467278187
Source of the keplerian elements: AFSPC